Hovedside
METAR-TAF:

METAR-TAF

Lufthavner :

Ørsta-Volda, Norge

Ørsta/Volda lufthamn

breddegrad: 62-11N, lengdegrad: 006-04E, høyde over havet: 7 m

Gjeldene værobservasjon

Denne rapporten ble laget for 24 minutter siden, klokken 19:50 UTC
Vind 2 kt fra skiftende retning
Temperatur 15°C
Luftfuktighet 77%
Trykk 1010 hPa
Sikt 10 km eller mer
Spredte skyer i en høyde av 4000 ft
Brutte skyer i en høyde av 5900 ft

METAR: ENOV 281950Z VRB02KT 9999 SCT040 BKN059 15/11 Q1010 RMK WIND 2175FT VRB01KT

Tid: 22:14 (20:14 UTC)


TAF: fraværende

Værobservasjoner og værvarsel for over 4000 flyplasser (METAR- og TAF-rapporter).

Tilgjengelige stasjoner er representert av de røde og gule prikkene på kartet.

Hold musepekeren over prikken for å se navnet på stasjonen.

Klikk så for å se værobservasjoner og -varsler.

For å forandre kartet kan du klikke på den grønne knappen med svart kryss for å zoome inn, på den grønne knappen med strek for å zoome ut, eller på de grønne pilene for å se tilstøtende kart.


METAR-TAF: